LXJ952 KCRQ-KSFO

Flight info

Callsign LXJ952
Flight time 1h 0m
Altitude 36000
Route PADRZ2 IKAYE RIZIN SPLNT STOKD SERFR SERFR4
Aircraft C750/M-VGDW/C

Departure

Time 2026-04-24 13:51
Airport McClellan-Palomar Airport (KCRQ)

Arrival

Time 2026-04-24 14:51
Airport San Francisco International Airport (KSFO)
Time Latitude Longitude Altitude Speed Heading
2026-04-24 13:44 33.12676 -117.28214 328 ft 0 kts 256°
2026-04-24 13:49 33.12675 -117.28248 328 ft 6 kts 296°
2026-04-24 13:49 33.12697 -117.28291 328 ft 13 kts 259°
2026-04-24 13:49 33.12670 -117.28453 330 ft 26 kts 259°
2026-04-24 13:49 33.12641 -117.28638 330 ft 20 kts 259°
2026-04-24 13:50 33.12665 -117.28774 326 ft 16 kts 339°
2026-04-24 13:50 33.12715 -117.28688 330 ft 24 kts 79°
2026-04-24 13:50 33.12818 -117.28053 332 ft 129 kts 79°
2026-04-24 13:50 33.13010 -117.26858 634 ft 156 kts 79°
2026-04-24 13:51 33.13214 -117.25588 1339 ft 160 kts 80°
2026-04-24 13:51 33.13462 -117.24219 1901 ft 174 kts 79°
2026-04-24 13:51 33.13782 -117.22831 2623 ft 178 kts 65°
2026-04-24 13:51 33.14674 -117.21803 3351 ft 178 kts 33°
2026-04-24 13:52 33.15420 -117.21427 3871 ft 178 kts 14°
2026-04-24 13:52 33.17042 -117.21618 4886 ft 178 kts 336°
2026-04-24 13:52 33.18013 -117.22530 5580 ft 180 kts 308°
2026-04-24 13:52 33.18508 -117.23893 6254 ft 181 kts 280°
2026-04-24 13:53 33.18551 -117.25390 6972 ft 180 kts 270°
2026-04-24 13:53 33.18578 -117.26891 7614 ft 189 kts 271°
2026-04-24 13:53 33.18611 -117.28581 8099 ft 217 kts 271°
2026-04-24 13:53 33.18641 -117.30489 8693 ft 242 kts 271°
2026-04-24 13:54 33.18673 -117.32600 9250 ft 266 kts 271°
2026-04-24 13:54 33.18707 -117.34858 10062 ft 274 kts 271°
2026-04-24 13:54 33.18743 -117.37146 10710 ft 289 kts 271°
2026-04-24 13:54 33.18780 -117.39648 10941 ft 315 kts 271°
2026-04-24 13:55 33.18820 -117.42367 11132 ft 338 kts 271°
2026-04-24 13:55 33.18861 -117.45169 11982 ft 337 kts 270°
2026-04-24 13:55 33.18903 -117.47984 12786 ft 340 kts 270°
2026-04-24 13:55 33.18942 -117.50814 13551 ft 343 kts 270°
2026-04-24 13:56 33.18982 -117.53668 14274 ft 345 kts 270°
2026-04-24 13:56 33.19021 -117.56547 14979 ft 347 kts 270°
2026-04-24 13:56 33.19060 -117.59427 15682 ft 349 kts 270°
2026-04-24 13:56 33.19098 -117.62333 16405 ft 351 kts 270°
2026-04-24 13:57 33.19137 -117.65254 17149 ft 353 kts 270°
2026-04-24 13:57 33.19174 -117.68189 17909 ft 355 kts 270°
2026-04-24 13:57 33.19211 -117.71152 18632 ft 358 kts 270°
2026-04-24 13:57 33.19248 -117.74127 19317 ft 360 kts 270°
2026-04-24 13:58 33.19272 -117.76115 19781 ft 362 kts 269°
2026-04-24 13:58 33.19308 -117.79130 20480 ft 365 kts 269°
2026-04-24 13:58 33.19375 -117.82165 21152 ft 369 kts 272°
2026-04-24 13:58 33.19958 -117.85173 21788 ft 377 kts 286°
2026-04-24 13:59 33.21157 -117.87989 22514 ft 386 kts 299°
2026-04-24 13:59 33.22933 -117.90447 23203 ft 395 kts 309°
2026-04-24 13:59 33.24902 -117.92770 23839 ft 399 kts 310°
2026-04-24 13:59 33.26879 -117.95105 24435 ft 402 kts 309°
2026-04-24 14:00 33.28861 -117.97479 25029 ft 404 kts 309°
2026-04-24 14:00 33.30851 -117.99868 25609 ft 407 kts 309°
2026-04-24 14:00 33.32858 -118.02264 26193 ft 410 kts 309°
2026-04-24 14:00 33.34888 -118.04684 26767 ft 413 kts 309°
2026-04-24 14:01 33.36924 -118.07121 27356 ft 416 kts 309°
2026-04-24 14:01 33.38977 -118.09583 27934 ft 419 kts 309°
2026-04-24 14:01 33.41043 -118.12058 28512 ft 422 kts 309°
2026-04-24 14:01 33.43126 -118.14555 29088 ft 425 kts 309°
2026-04-24 14:02 33.45220 -118.17069 29664 ft 428 kts 309°
2026-04-24 14:02 33.47329 -118.19602 30203 ft 431 kts 309°
2026-04-24 14:02 33.49451 -118.22152 30682 ft 434 kts 309°
2026-04-24 14:02 33.51588 -118.24722 31213 ft 435 kts 309°
2026-04-24 14:03 33.53712 -118.27274 31967 ft 431 kts 309°
2026-04-24 14:03 33.55821 -118.29814 32666 ft 428 kts 308°
2026-04-24 14:03 33.57911 -118.32337 33357 ft 426 kts 308°
2026-04-24 14:03 33.60003 -118.34861 34056 ft 424 kts 308°
2026-04-24 14:04 33.62078 -118.37363 34680 ft 422 kts 308°
2026-04-24 14:04 33.64140 -118.39854 35343 ft 419 kts 307°
2026-04-24 14:04 33.66180 -118.42320 35945 ft 416 kts 307°
2026-04-24 14:04 33.68239 -118.44822 35985 ft 428 kts 307°
2026-04-24 14:05 33.70338 -118.47375 35985 ft 441 kts 307°
2026-04-24 14:05 33.72558 -118.50058 36001 ft 452 kts 308°
2026-04-24 14:05 33.77043 -118.55489 36004 ft 468 kts 308°
2026-04-24 14:06 33.81706 -118.61157 36003 ft 478 kts 308°
2026-04-24 14:06 33.86361 -118.66817 35997 ft 479 kts 308°
2026-04-24 14:07 33.91042 -118.72524 36005 ft 479 kts 308°
2026-04-24 14:07 33.95714 -118.78229 36001 ft 479 kts 308°
2026-04-24 14:08 34.00387 -118.83944 36005 ft 479 kts 308°
2026-04-24 14:08 34.05063 -118.89673 36010 ft 479 kts 308°
2026-04-24 14:09 34.09727 -118.95397 36011 ft 478 kts 308°
2026-04-24 14:09 34.14242 -119.01243 35992 ft 472 kts 302°
2026-04-24 14:10 34.17802 -119.07822 36004 ft 467 kts 296°
2026-04-24 14:10 34.21251 -119.14469 36014 ft 467 kts 296°
2026-04-24 14:11 34.24675 -119.21142 36005 ft 467 kts 296°
2026-04-24 14:12 34.29820 -119.31152 36000 ft 468 kts 296°
2026-04-24 14:12 34.33247 -119.37852 35994 ft 469 kts 296°
2026-04-24 14:13 34.36673 -119.44546 35986 ft 468 kts 296°
2026-04-24 14:13 34.40111 -119.51236 35976 ft 470 kts 297°
2026-04-24 14:14 34.44383 -119.57269 35989 ft 480 kts 308°
2026-04-24 14:14 34.51415 -119.65926 36006 ft 480 kts 307°
2026-04-24 14:15 34.56126 -119.71714 35994 ft 482 kts 308°
2026-04-24 14:15 34.60819 -119.77515 35990 ft 483 kts 307°
2026-04-24 14:16 34.65523 -119.83330 36006 ft 484 kts 307°
2026-04-24 14:17 34.72602 -119.92105 36018 ft 485 kts 307°
2026-04-24 14:17 34.79693 -120.00911 36019 ft 486 kts 307°
2026-04-24 14:18 34.84420 -120.06803 36012 ft 487 kts 307°
2026-04-24 14:18 34.89160 -120.12711 36013 ft 488 kts 307°
2026-04-24 14:19 34.93891 -120.18627 36014 ft 488 kts 307°
2026-04-24 14:19 34.98630 -120.24556 36014 ft 489 kts 307°
2026-04-24 14:20 35.03381 -120.30516 36019 ft 489 kts 307°
2026-04-24 14:20 35.08123 -120.36473 36017 ft 490 kts 307°
2026-04-24 14:21 35.13157 -120.42177 36009 ft 494 kts 310°
2026-04-24 14:21 35.18223 -120.47871 36008 ft 496 kts 310°
2026-04-24 14:22 35.23305 -120.53568 36000 ft 496 kts 310°
2026-04-24 14:23 35.30935 -120.62153 36007 ft 498 kts 310°
2026-04-24 14:23 35.36002 -120.67859 36002 ft 498 kts 310°
2026-04-24 14:24 35.41097 -120.73616 36017 ft 498 kts 310°
2026-04-24 14:24 35.46197 -120.79383 36030 ft 499 kts 310°
2026-04-24 14:25 35.51594 -120.84823 36045 ft 506 kts 317°
2026-04-24 14:25 35.57218 -120.90040 36048 ft 507 kts 316°
2026-04-24 14:26 35.62845 -120.95277 36043 ft 508 kts 316°
2026-04-24 14:26 35.68484 -121.00513 36042 ft 508 kts 316°
2026-04-24 14:27 35.74113 -121.05773 36035 ft 509 kts 316°
2026-04-24 14:27 35.79755 -121.11033 36042 ft 509 kts 316°
2026-04-24 14:28 35.85410 -121.16333 36041 ft 510 kts 317°
2026-04-24 14:28 35.91065 -121.21629 36043 ft 511 kts 317°
2026-04-24 14:29 35.96720 -121.26944 36043 ft 511 kts 317°
2026-04-24 14:29 35.99513 -121.29565 35579 ft 498 kts 317°
2026-04-24 14:29 36.02226 -121.32108 34939 ft 480 kts 317°
2026-04-24 14:29 36.04828 -121.34559 34303 ft 461 kts 316°
2026-04-24 14:30 36.06496 -121.36131 33900 ft 452 kts 316°
2026-04-24 14:30 36.09999 -121.38938 33099 ft 445 kts 322°
2026-04-24 14:30 36.12631 -121.40973 32520 ft 450 kts 322°
2026-04-24 14:30 36.15268 -121.43039 31919 ft 459 kts 322°
2026-04-24 14:31 36.18017 -121.45198 31330 ft 465 kts 323°
2026-04-24 14:31 36.20737 -121.47317 30718 ft 471 kts 324°
2026-04-24 14:31 36.23527 -121.49488 30080 ft 473 kts 324°
2026-04-24 14:31 36.26291 -121.51650 29423 ft 467 kts 324°
2026-04-24 14:32 36.29018 -121.53791 28811 ft 462 kts 324°
2026-04-24 14:32 36.31718 -121.55909 28206 ft 458 kts 325°
2026-04-24 14:32 36.34401 -121.58012 27607 ft 454 kts 325°
2026-04-24 14:32 36.37057 -121.60095 27007 ft 450 kts 325°
2026-04-24 14:33 36.39690 -121.62167 26422 ft 447 kts 325°
2026-04-24 14:33 36.42308 -121.64227 25830 ft 443 kts 325°
2026-04-24 14:33 36.44901 -121.66267 25248 ft 436 kts 326°
2026-04-24 14:33 36.47411 -121.68241 24684 ft 419 kts 326°
2026-04-24 14:34 36.49832 -121.70149 24141 ft 406 kts 326°
2026-04-24 14:34 36.52187 -121.72011 23607 ft 398 kts 326°
2026-04-24 14:34 36.54513 -121.73851 23039 ft 392 kts 326°
2026-04-24 14:34 36.56799 -121.75657 22529 ft 388 kts 326°
2026-04-24 14:35 36.59066 -121.77450 22021 ft 386 kts 325°
2026-04-24 14:35 36.61328 -121.79241 21511 ft 385 kts 325°
2026-04-24 14:35 36.63579 -121.81026 21009 ft 383 kts 325°
2026-04-24 14:35 36.65819 -121.82801 20495 ft 380 kts 325°
2026-04-24 14:36 36.68040 -121.84563 19996 ft 377 kts 324°
2026-04-24 14:36 36.70207 -121.86284 19506 ft 373 kts 324°
2026-04-24 14:36 36.72391 -121.88020 18994 ft 371 kts 324°
2026-04-24 14:36 36.74661 -121.89526 18416 ft 374 kts 336°
2026-04-24 14:37 36.77178 -121.90274 17968 ft 369 kts 345°
2026-04-24 14:37 36.79678 -121.90945 17492 ft 368 kts 345°
2026-04-24 14:37 36.82165 -121.91649 17001 ft 366 kts 344°
2026-04-24 14:37 36.84636 -121.92354 16526 ft 363 kts 345°
2026-04-24 14:38 36.87090 -121.93036 16042 ft 360 kts 345°
2026-04-24 14:38 36.89533 -121.93712 15572 ft 357 kts 346°
2026-04-24 14:38 36.91948 -121.94388 15097 ft 354 kts 346°
2026-04-24 14:38 36.94342 -121.95062 14632 ft 351 kts 347°
2026-04-24 14:39 36.96674 -121.95905 14168 ft 347 kts 341°
2026-04-24 14:39 36.98968 -121.96808 13696 ft 346 kts 343°
2026-04-24 14:39 37.01270 -121.97674 13222 ft 343 kts 343°
2026-04-24 14:39 37.03538 -121.98548 12768 ft 340 kts 342°
2026-04-24 14:40 37.05779 -121.99434 12322 ft 337 kts 342°
2026-04-24 14:40 37.08003 -122.00308 11877 ft 334 kts 342°
2026-04-24 14:40 37.10211 -122.01166 11430 ft 331 kts 342°
2026-04-24 14:40 37.12403 -122.02020 10998 ft 329 kts 341°
2026-04-24 14:41 37.14573 -122.02869 10568 ft 322 kts 341°
2026-04-24 14:41 37.16652 -122.03682 10151 ft 305 kts 341°
2026-04-24 14:41 37.18619 -122.04451 9744 ft 291 kts 341°
2026-04-24 14:41 37.20523 -122.05197 9352 ft 281 kts 340°
2026-04-24 14:42 37.21752 -122.05681 9103 ft 278 kts 340°
2026-04-24 14:42 37.24217 -122.06649 8630 ft 278 kts 340°
2026-04-24 14:42 37.26067 -122.07376 8262 ft 279 kts 341°
2026-04-24 14:42 37.27882 -122.08086 7811 ft 276 kts 340°
2026-04-24 14:43 37.29694 -122.08798 7422 ft 269 kts 340°
2026-04-24 14:43 37.31463 -122.09496 7094 ft 264 kts 340°
2026-04-24 14:43 37.33198 -122.10181 6778 ft 261 kts 340°
2026-04-24 14:43 37.34934 -122.10866 6468 ft 261 kts 340°
2026-04-24 14:44 37.36670 -122.11551 6141 ft 261 kts 340°
2026-04-24 14:44 37.38420 -122.12153 5813 ft 261 kts 345°
2026-04-24 14:44 37.40169 -122.12745 5515 ft 260 kts 342°
2026-04-24 14:44 37.41904 -122.13391 5206 ft 260 kts 342°
2026-04-24 14:45 37.43647 -122.13998 4892 ft 259 kts 343°
2026-04-24 14:45 37.45380 -122.14580 4570 ft 257 kts 343°
2026-04-24 14:45 37.47105 -122.15150 4262 ft 255 kts 344°
2026-04-24 14:45 37.48812 -122.15707 3947 ft 253 kts 344°
2026-04-24 14:46 37.50512 -122.16267 3645 ft 252 kts 344°
2026-04-24 14:46 37.52202 -122.16835 3334 ft 250 kts 343°
2026-04-24 14:46 37.53687 -122.17892 2915 ft 246 kts 315°
2026-04-24 14:46 37.54618 -122.19644 2683 ft 238 kts 297°
2026-04-24 14:47 37.55115 -122.20851 2554 ft 227 kts 296°
2026-04-24 14:47 37.56028 -122.23058 2179 ft 195 kts 297°
2026-04-24 14:47 37.56623 -122.24463 1957 ft 170 kts 297°
2026-04-24 14:47 37.57146 -122.25701 1771 ft 153 kts 296°
2026-04-24 14:48 37.57472 -122.26477 1639 ft 151 kts 296°
2026-04-24 14:48 37.57977 -122.27680 1511 ft 161 kts 297°
2026-04-24 14:48 37.58508 -122.28942 1296 ft 165 kts 297°
2026-04-24 14:48 37.59035 -122.30192 1062 ft 153 kts 297°
2026-04-24 14:49 37.59502 -122.31301 835 ft 135 kts 297°
2026-04-24 14:49 37.59931 -122.32322 646 ft 129 kts 297°
2026-04-24 14:49 37.60349 -122.33321 481 ft 129 kts 296°
2026-04-24 14:49 37.60772 -122.34326 308 ft 129 kts 296°
2026-04-24 14:50 37.61188 -122.35323 143 ft 127 kts 296°
2026-04-24 14:50 37.61585 -122.36271 22 ft 114 kts 296°
2026-04-24 14:50 37.61910 -122.37041 13 ft 86 kts 298°
2026-04-24 14:50 37.62159 -122.37631 16 ft 67 kts 298°
2026-04-24 14:51 37.62314 -122.38002 21 ft 32 kts 297°
2026-04-24 14:51 37.62458 -122.38133 16 ft 19 kts
2026-04-24 14:51 37.62563 -122.38136 15 ft 14 kts 19°
2026-04-24 14:51 37.62649 -122.38088 13 ft 13 kts 14°
2026-04-24 14:52 37.62724 -122.38130 11 ft 13 kts 301°
2026-04-24 14:52 37.62766 -122.38227 12 ft 11 kts 296°
2026-04-24 14:52 37.62791 -122.38288 13 ft 0 kts 298°